DW6267 Weather Reports


Display with metric or nautical units.
time (UTC)temp
F
wind
direction
speed
MPH
gust
MPH
rain 1hr
in
rain 24hr
in
rain mn
in
humidity
%
barometer
mb
20260901060328 51 140 0.0 0.0 0.00 0.00 0.00 82 1009.4
20260901050337 52 140 0.0 0.0 0.00 0.00 0.00 82 1009.2
20260901040341 55 140 0.0 0.0 0.00 0.00 0.00 80 1009.2
20260901030336 57 140 0.0 0.0 0.00 0.00 0.00 77 1008.6
20260901020335 61 140 0.0 0.0 0.00 0.00 0.00 71 1008.0
20260901010330 66 140 0.0 0.0 0.00 0.00 0.00 59 1008.5
20260901000331 74 140 0.0 0.0 0.00 0.00 0.00 39 1008.3
20260831230348 76 96 0.0 0.0 0.00 0.00 0.00 33 1008.7
20260831220350 75 69 0.0 0.0 0.00 0.00 0.00 33 1009.5
20260831210334 73 63 1.0 0.0 0.00 0.00 0.00 35 1011.0
20260831200342 71 85 1.0 0.0 0.00 0.00 0.00 39 1011.2
20260831190342 66 14 0.0 0.0 0.00 0.00 0.00 52 1012.8
20260831180357 61 304 0.0 0.0 0.00 0.00 0.00 62 1013.0
20260831170339 55 304 0.0 0.0 0.00 0.00 0.00 78 1013.6
20260831160335 49 304 0.0 0.0 0.00 0.00 0.00 98 1014.2
20260831150339 44 304 0.0 0.0 0.00 0.00 0.00 100 1014.0
20260831140348 42 304 0.0 0.0 0.00 0.00 0.00 100 1014.2
20260831130350 42 304 0.0 0.0 0.00 0.00 0.00 100 1014.1
20260831120346 42 304 0.0 0.0 0.00 0.00 0.00 100 1013.8
20260831110334 42 304 0.0 0.0 0.00 0.00 0.00 100 1014.1
20260831100333 43 304 0.0 0.0 0.00 0.00 0.00 96 1014.7
20260831090349 44 304 0.0 0.0 0.00 0.00 0.00 93 1014.8
20260831080348 45 304 0.0 0.0 0.00 0.00 0.00 92 1014.1
20260831070333 46 304 0.0 0.0 0.00 0.00 0.00 90 1014.3